This demonstration page uses our WeatherBlox Daily Observations layout. Learn more.

Left ArrowRight Arrow

Hourly Observations for May 5, 2015

Temp ( °F °C ) Dew Point ( °F °C ) Humidity (%) Winds ( mph kmh ) Pressure ( in mb ) Visibility ( mi km ) Precip ( " mm )
12:15 am 00:15 Clear 68 20 55 13 64 64 S 7 11 30.21 1023 10 16 N/A
12:35 am 00:35 Clear 68 20 55 13 64 64 S 7 11 30.21 1023 10 16 N/A
12:55 am 00:55 Clear 68 20 55 13 64 64 S 7 11 30.21 1023 10 16 N/A
1:15 am 01:15 Clear 64 18 55 13 73 73 SSW 7 11 30.21 1023 10 16 N/A
1:35 am 01:35 Clear 64 18 55 13 73 73 SSW 7 11 30.21 1023 10 16 N/A
1:55 am 01:55 Clear 64 18 55 13 73 73 SSW 3 6 30.21 1023 10 16 N/A
2:15 am 02:15 Clear 61 16 55 13 83 83 S 5 7 30.21 1023 10 16 N/A
2:35 am 02:35 Clear 63 17 55 13 77 77 S 5 7 30.21 1023 10 16 N/A
2:55 am 02:55 Clear 63 17 55 13 77 77 SW 3 6 30.21 1023 10 16 N/A
3:15 am 03:15 Clear 61 16 55 13 83 83 N N/A 30.21 1023 10 16 N/A
3:35 am 03:35 Clear 63 17 55 13 77 77 SW 3 6 30.21 1023 10 16 N/A
3:55 am 03:55 Clear 63 17 55 13 77 77 S 5 7 30.21 1023 10 16 N/A
4:15 am 04:15 Clear 61 16 55 13 83 83 SSW 8 13 30.21 1023 10 16 N/A
4:35 am 04:35 Clear 63 17 55 13 77 77 SW 5 7 30.21 1023 10 16 N/A
4:55 am 04:55 Clear 59 15 55 13 88 88 WSW 5 7 30.21 1023 10 16 N/A
5:15 am 05:15 Clear 59 15 55 13 88 88 W 5 7 30.21 1023 10 16 N/A
5:35 am 05:35 Clear 61 16 55 13 83 83 SSW 3 6 30.21 1023 10 16 N/A
5:55 am 05:55 Clear 61 16 55 13 83 83 SW 5 7 30.24 1024 10 16 N/A
6:15 am 06:15 Sunny 59 15 55 13 88 88 W 6 9 30.24 1024 10 16 N/A
6:35 am 06:35 Sunny 59 15 55 13 88 88 N N/A 30.24 1024 10 16 N/A
6:55 am 06:55 Sunny 61 16 55 13 83 83 N N/A 30.24 1024 10 16 N/A
7:15 am 07:15 Partly Cloudy 61 16 57 14 88 88 N N/A 30.27 1025 10 16 N/A
7:35 am 07:35 Mostly Cloudy 63 17 57 14 83 83 N N/A 30.27 1025 10 16 N/A
7:55 am 07:55 Mostly Cloudy 64 18 59 15 83 83 WSW 3 6 30.27 1025 10 16 N/A
8:15 am 08:15 Mostly Cloudy 66 19 59 15 78 78 N N/A 30.27 1025 10 16 N/A
8:35 am 08:35 Mostly Cloudy 68 20 59 15 73 73 WSW 3 6 30.27 1025 10 16 N/A
8:55 am 08:55 Mostly Cloudy 72 22 61 16 69 69 N N/A 30.27 1025 10 16 N/A
9:15 am 09:15 Cloudy 73 23 61 16 65 65 WNW 5 7 30.27 1025 10 16 N/A
9:35 am 09:35 Mostly Cloudy 73 23 61 16 65 65 NNW 3 6 30.27 1025 10 16 N/A
9:55 am 09:55 Partly Cloudy 75 24 61 16 61 61 N N/A 30.27 1025 10 16 N/A
10:15 am 10:15 Sunny 77 25 61 16 57 57 W 3 6 30.27 1025 10 16 N/A
10:35 am 10:35 Mostly Cloudy 77 25 59 15 54 54 N 5 7 30.27 1025 10 16 N/A
10:55 am 10:55 Mostly Cloudy 79 26 61 16 54 54 NW 9 15 30.27 1025 10 16 N/A
11:15 am 11:15 Partly Cloudy 79 26 61 16 54 54 NNE 5 7 30.27 1025 10 16 N/A
11:35 am 11:35 Sunny 81 27 59 15 48 48 N 5 7 30.27 1025 10 16 N/A
11:55 am 11:55 Partly Cloudy 81 27 61 16 51 51 WNW 7 11 30.27 1025 10 16 N/A
12:15 pm 12:15 Partly Cloudy 81 27 59 15 48 48 NW 6 9 30.27 1025 10 16 N/A
12:35 pm 12:35 Sunny 81 27 61 16 51 51 ESE 3 6 30.27 1025 10 16 N/A
12:55 pm 12:55 Sunny 82 28 59 15 45 45 N N/A 30.27 1025 10 16 N/A
1:15 pm 13:15 Sunny 82 28 61 16 48 48 ENE 6 9 30.24 1024 10 16 N/A
1:35 pm 13:35 Sunny 82 28 61 16 48 48 SE 5 7 30.24 1024 10 16 N/A
1:55 pm 13:55 Partly Cloudy 82 28 61 16 48 48 S 9 15 30.24 1024 10 16 N/A
2:15 pm 14:15 Partly Cloudy 84 29 59 15 43 43 ESE 5 7 30.24 1024 10 16 N/A
2:35 pm 14:35 Partly Cloudy 84 29 59 15 43 43 N N/A 30.24 1024 10 16 N/A
2:55 pm 14:55 Cloudy 84 29 61 16 45 45 NE 6 9 30.24 1024 7 11 N/A
3:15 pm 15:15 Mostly Cloudy 82 28 59 15 45 45 NNE 3 6 30.21 1023 10 16 N/A
3:35 pm 15:35 Partly Cloudy 82 28 59 15 45 45 N N/A 30.21 1023 10 16 N/A
3:55 pm 15:55 Partly Cloudy 82 28 59 15 45 45 N N/A 30.21 1023 10 16 N/A
4:15 pm 16:15 Cloudy 82 28 59 15 45 45 N N/A 30.21 1023 10 16 N/A
4:35 pm 16:35 Cloudy 82 28 59 15 45 45 N N/A 30.21 1023 10 16 N/A
4:55 pm 16:55 Mostly Cloudy 82 28 63 17 51 51 W 6 9 30.21 1023 10 16 N/A
5:15 pm 17:15 Cloudy 77 25 63 17 61 61 WNW 8 13 30.21 1023 10 16 N/A
5:35 pm 17:35 Mostly Cloudy with Nearby Thunderstorms 75 24 63 17 65 65 WSW 6 9 30.21 1023 10 16 N/A
5:55 pm 17:55 Partly Cloudy 73 23 63 17 69 69 WSW 7 11 30.21 1023 10 16 N/A
6:15 pm 18:15 Sunny 73 23 63 17 69 69 SSW 5 7 30.21 1023 10 16 N/A
6:35 pm 18:35 Sunny 73 23 64 18 74 74 S 7 11 30.21 1023 10 16 N/A
6:55 pm 18:55 Sunny 73 23 64 18 74 74 S 7 11 30.21 1023 10 16 N/A
7:15 pm 19:15 Sunny 72 22 63 17 73 73 S 7 11 30.21 1023 10 16 N/A
7:35 pm 19:35 Partly Cloudy 72 22 63 17 73 73 SSW 5 7 30.21 1023 10 16 N/A
7:55 pm 19:55 Partly Cloudy 70 21 63 17 78 78 S 5 7 30.21 1023 10 16 N/A
8:15 pm 20:15 Clear 70 21 63 17 78 78 N N/A 30.24 1024 10 16 N/A
8:35 pm 20:35 Mostly Cloudy 70 21 63 17 78 78 N N/A 30.24 1024 10 16 N/A
8:55 pm 20:55 Partly Cloudy 70 21 63 17 78 78 SSE 5 7 30.24 1024 10 16 N/A
9:15 pm 21:15 Clear 68 20 63 17 83 83 S 3 6 30.24 1024 10 16 N/A
9:35 pm 21:35 Partly Cloudy 68 20 63 17 83 83 N N/A 30.24 1024 10 16 N/A
9:55 pm 21:55 Mostly Cloudy 68 20 63 17 83 83 N N/A 30.27 1025 10 16 N/A
10:15 pm 22:15 Mostly Cloudy 66 19 63 17 88 88 S 3 6 30.27 1025 10 16 N/A
10:35 pm 22:35 Cloudy 64 18 63 17 94 94 S 6 9 30.27 1025 10 16 N/A
10:55 pm 22:55 Cloudy 66 19 64 18 94 94 SSW 5 7 30.27 1025 10 16 N/A
11:15 pm 23:15 Cloudy 66 19 64 18 94 94 SW 3 6 30.27 1025 10 16 N/A
11:35 pm 23:35 Mostly Cloudy 66 19 64 18 94 94 N N/A 30.27 1025 10 16 N/A
11:55 pm 23:55 Mostly Cloudy 64 18 64 18 100 100 SSW 8 13 30.24 1024 10 16 N/A

Powered by AerisWeather